UAL55 DXXX-FGSL

Flight info

Callsign UAL55
Flight time 1h 18m
Altitude 37000
Route MONOS2S MONOS UL433 TYE UA601 EVBIX UQ589 ARAGU UR984 POT NAPAP1D
Aircraft B738/M-SDE2E3FGHIRWXY/LB1

Departure

Time 2026-04-23 16:07
Airport Lomé–Tokoin International Airport (DXXX)

Arrival

Time 2026-04-23 17:25
Airport Malabo International Airport (FGSL)
Time Latitude Longitude Altitude Speed Heading
2026-04-23 15:58 6.17001 1.25409 79 ft 0 kts 309°
2026-04-23 16:01 6.16991 1.25422 78 ft 3 kts 309°
2026-04-23 16:01 6.16980 1.25435 78 ft 2 kts 306°
2026-04-23 16:01 6.16974 1.25445 78 ft 1 kts 291°
2026-04-23 16:02 6.16971 1.25455 78 ft 1 kts 273°
2026-04-23 16:02 6.16972 1.25464 78 ft 1 kts 257°
2026-04-23 16:02 6.16974 1.25472 78 ft 1 kts 242°
2026-04-23 16:02 6.16979 1.25479 77 ft 1 kts 226°
2026-04-23 16:03 6.16985 1.25484 77 ft 1 kts 219°
2026-04-23 16:03 6.16985 1.25485 77 ft 0 kts 219°
2026-04-23 16:04 6.16944 1.25459 78 ft 14 kts 219°
2026-04-23 16:04 6.16841 1.25361 77 ft 24 kts 224°
2026-04-23 16:04 6.16706 1.25237 78 ft 30 kts 219°
2026-04-23 16:04 6.16531 1.25106 77 ft 33 kts 205°
2026-04-23 16:05 6.16393 1.25035 75 ft 33 kts 216°
2026-04-23 16:05 6.16117 1.24816 73 ft 37 kts 219°
2026-04-23 16:05 6.15917 1.24657 72 ft 34 kts 218°
2026-04-23 16:05 6.15724 1.24516 70 ft 32 kts 197°
2026-04-23 16:06 6.15655 1.24503 70 ft 6 kts 188°
2026-04-23 16:06 6.15564 1.24523 69 ft 20 kts 127°
2026-04-23 16:06 6.15679 1.24705 68 ft 71 kts 38°
2026-04-23 16:06 6.16307 1.25203 74 ft 154 kts 38°
2026-04-23 16:07 6.17334 1.26017 265 ft 204 kts 38°
2026-04-23 16:07 6.18429 1.26975 910 ft 219 kts 52°
2026-04-23 16:07 6.19086 1.28410 1575 ft 237 kts 75°
2026-04-23 16:07 6.19607 1.30036 2270 ft 248 kts 75°
2026-04-23 16:08 6.20093 1.31679 3287 ft 252 kts 75°
2026-04-23 16:08 6.20529 1.33322 4663 ft 241 kts 75°
2026-04-23 16:08 6.20890 1.34910 5727 ft 242 kts 75°
2026-04-23 16:08 6.20937 1.36644 6443 ft 265 kts 100°
2026-04-23 16:09 6.20387 1.38498 7085 ft 284 kts 90°
2026-04-23 16:09 6.20574 1.40402 8245 ft 278 kts 77°
2026-04-23 16:09 6.20858 1.42251 9635 ft 267 kts 77°
2026-04-23 16:09 6.21156 1.44099 10469 ft 277 kts 78°
2026-04-23 16:10 6.21469 1.46060 11080 ft 295 kts 78°
2026-04-23 16:10 6.21802 1.48149 11648 ft 314 kts 78°
2026-04-23 16:10 6.22154 1.50367 12214 ft 331 kts 78°
2026-04-23 16:10 6.22524 1.52700 12823 ft 346 kts 79°
2026-04-23 16:11 6.22899 1.55072 13857 ft 345 kts 79°
2026-04-23 16:11 6.23275 1.57431 14615 ft 352 kts 79°
2026-04-23 16:11 6.23666 1.59893 15230 ft 362 kts 79°
2026-04-23 16:11 6.24063 1.62391 16034 ft 365 kts 79°
2026-04-23 16:12 6.24466 1.64933 16727 ft 370 kts 79°
2026-04-23 16:12 6.24872 1.67491 17374 ft 376 kts 80°
2026-04-23 16:12 6.25281 1.70078 18024 ft 382 kts 79°
2026-04-23 16:12 6.25701 1.72719 18726 ft 384 kts 79°
2026-04-23 16:13 6.26125 1.75397 19362 ft 389 kts 79°
2026-04-23 16:13 6.26979 1.80774 20595 ft 396 kts 80°
2026-04-23 16:13 6.27411 1.83503 21127 ft 401 kts 80°
2026-04-23 16:14 6.27852 1.86285 21635 ft 406 kts 80°
2026-04-23 16:14 6.28294 1.89086 22320 ft 405 kts 80°
2026-04-23 16:14 6.28733 1.91870 22825 ft 409 kts 80°
2026-04-23 16:14 6.29180 1.94709 23266 ft 414 kts 79°
2026-04-23 16:15 6.29633 1.97576 23891 ft 413 kts 79°
2026-04-23 16:15 6.30083 2.00420 24290 ft 418 kts 79°
2026-04-23 16:15 6.30539 2.03315 24741 ft 421 kts 79°
2026-04-23 16:15 6.30994 2.06193 25200 ft 423 kts 79°
2026-04-23 16:16 6.31462 2.09157 25596 ft 427 kts 78°
2026-04-23 16:16 6.31926 2.12092 26029 ft 429 kts 78°
2026-04-23 16:16 6.32389 2.15028 26461 ft 430 kts 78°
2026-04-23 16:16 6.32858 2.18004 26864 ft 432 kts 78°
2026-04-23 16:17 6.33329 2.20985 27171 ft 436 kts 78°
2026-04-23 16:17 6.33799 2.23988 27524 ft 438 kts 78°
2026-04-23 16:17 6.34277 2.27022 27926 ft 439 kts 77°
2026-04-23 16:17 6.34755 2.30042 28295 ft 440 kts 77°
2026-04-23 16:18 6.35232 2.33070 28785 ft 439 kts 77°
2026-04-23 16:18 6.35709 2.36088 29395 ft 434 kts 78°
2026-04-23 16:18 6.35874 2.39090 29766 ft 441 kts 92°
2026-04-23 16:18 6.35143 2.42107 29971 ft 452 kts 109°
2026-04-23 16:19 6.33939 2.45012 30665 ft 444 kts 109°
2026-04-23 16:19 6.32790 2.47835 31415 ft 436 kts 109°
2026-04-23 16:19 6.31644 2.50663 31728 ft 437 kts 109°
2026-04-23 16:19 6.30512 2.53477 32065 ft 438 kts 110°
2026-04-23 16:20 6.29370 2.56301 32598 ft 434 kts 110°
2026-04-23 16:20 6.28248 2.59089 33140 ft 430 kts 110°
2026-04-23 16:20 6.27133 2.61853 33451 ft 431 kts 110°
2026-04-23 16:20 6.26001 2.64657 33823 ft 431 kts 110°
2026-04-23 16:21 6.24879 2.67440 34299 ft 428 kts 111°
2026-04-23 16:21 6.23772 2.70183 34756 ft 426 kts 111°
2026-04-23 16:21 6.22662 2.72932 35182 ft 423 kts 111°
2026-04-23 16:21 6.21547 2.75665 35580 ft 422 kts 112°
2026-04-23 16:22 6.20402 2.78344 35874 ft 423 kts 112°
2026-04-23 16:22 6.19240 2.81073 36148 ft 423 kts 113°
2026-04-23 16:22 6.18086 2.83781 36628 ft 418 kts 113°
2026-04-23 16:22 6.16957 2.86431 36757 ft 417 kts 113°
2026-04-23 16:23 6.14641 2.91850 36783 ft 429 kts 114°
2026-04-23 16:23 6.12263 2.97421 36793 ft 441 kts 114°
2026-04-23 16:24 6.09824 3.03132 36793 ft 452 kts 113°
2026-04-23 16:24 6.07318 3.09002 36784 ft 457 kts 113°
2026-04-23 16:25 6.04831 3.14822 36778 ft 452 kts 113°
2026-04-23 16:25 6.02363 3.20599 36781 ft 453 kts 113°
2026-04-23 16:26 5.99882 3.26403 36780 ft 453 kts 113°
2026-04-23 16:26 5.97406 3.32192 36785 ft 452 kts 113°
2026-04-23 16:27 5.94923 3.37999 36782 ft 454 kts 113°
2026-04-23 16:27 5.92451 3.43773 36787 ft 452 kts 113°
2026-04-23 16:28 5.89967 3.49581 36792 ft 451 kts 112°
2026-04-23 16:28 5.87503 3.55336 36801 ft 452 kts 112°
2026-04-23 16:29 5.85015 3.61143 36804 ft 452 kts 112°
2026-04-23 16:29 5.82544 3.66912 36809 ft 451 kts 112°
2026-04-23 16:30 5.80051 3.72729 36805 ft 452 kts 112°
2026-04-23 16:30 5.77583 3.78487 36808 ft 452 kts 112°
2026-04-23 16:31 5.75104 3.84268 36799 ft 453 kts 112°
2026-04-23 16:31 5.72759 3.90146 36805 ft 451 kts 111°
2026-04-23 16:32 5.70442 3.95968 36799 ft 451 kts 111°
2026-04-23 16:32 5.68107 4.01829 36793 ft 453 kts 111°
2026-04-23 16:33 5.65772 4.07693 36793 ft 453 kts 111°
2026-04-23 16:33 5.63453 4.13510 36798 ft 451 kts 111°
2026-04-23 16:34 5.61131 4.19330 36793 ft 451 kts 111°
2026-04-23 16:34 5.58798 4.25179 36800 ft 451 kts 111°
2026-04-23 16:35 5.56472 4.31007 36797 ft 452 kts 111°
2026-04-23 16:35 5.54133 4.36867 36798 ft 451 kts 111°
2026-04-23 16:36 5.51810 4.42683 36804 ft 450 kts 111°
2026-04-23 16:36 5.49479 4.48516 36804 ft 451 kts 111°
2026-04-23 16:37 5.47151 4.54343 36805 ft 450 kts 110°
2026-04-23 16:37 5.44819 4.60180 36805 ft 451 kts 111°
2026-04-23 16:38 5.42483 4.66008 36799 ft 450 kts 111°
2026-04-23 16:38 5.40143 4.71824 36808 ft 450 kts 111°
2026-04-23 16:39 5.37807 4.77627 36809 ft 450 kts 111°
2026-04-23 16:39 5.35469 4.83442 36809 ft 451 kts 111°
2026-04-23 16:40 5.33120 4.89274 36808 ft 451 kts 111°
2026-04-23 16:40 5.30788 4.95066 36812 ft 451 kts 111°
2026-04-23 16:41 5.28439 5.00898 36814 ft 451 kts 111°
2026-04-23 16:41 5.26084 5.06743 36816 ft 450 kts 111°
2026-04-23 16:42 5.23762 5.12507 36817 ft 450 kts 111°
2026-04-23 16:42 5.21409 5.18342 36806 ft 450 kts 111°
2026-04-23 16:43 5.19064 5.24155 36801 ft 450 kts 111°
2026-04-23 16:43 5.16726 5.29952 36801 ft 450 kts 111°
2026-04-23 16:44 5.14384 5.35754 36799 ft 449 kts 111°
2026-04-23 16:44 5.12045 5.41550 36811 ft 448 kts 111°
2026-04-23 16:45 5.09710 5.47331 36815 ft 448 kts 111°
2026-04-23 16:45 5.07372 5.53121 36820 ft 448 kts 111°
2026-04-23 16:46 5.05225 5.58936 36800 ft 447 kts 99°
2026-04-23 16:46 5.05103 5.62050 36854 ft 447 kts 83°
2026-04-23 16:46 5.05868 5.65061 36835 ft 451 kts 67°
2026-04-23 16:47 5.08921 5.70533 36828 ft 453 kts 63°
2026-04-23 16:47 5.11939 5.76071 36819 ft 452 kts 63°
2026-04-23 16:48 5.14923 5.81594 36818 ft 452 kts 63°
2026-04-23 16:48 5.17913 5.87138 36825 ft 453 kts 64°
2026-04-23 16:49 5.20908 5.92698 36827 ft 454 kts 63°
2026-04-23 16:49 5.23905 5.98259 36829 ft 453 kts 64°
2026-04-23 16:50 5.26903 6.03831 36820 ft 454 kts 64°
2026-04-23 16:50 5.29881 6.09358 36822 ft 453 kts 63°
2026-04-23 16:51 5.32766 6.14960 36806 ft 451 kts 73°
2026-04-23 16:51 5.33369 6.18046 36862 ft 448 kts 89°
2026-04-23 16:51 5.33078 6.21127 36831 ft 448 kts 105°
2026-04-23 16:52 5.30802 6.26938 36811 ft 451 kts 111°
2026-04-23 16:52 5.28500 6.32743 36818 ft 448 kts 111°
2026-04-23 16:53 5.26215 6.38548 36811 ft 446 kts 111°
2026-04-23 16:53 5.23944 6.44322 36811 ft 448 kts 111°
2026-04-23 16:54 5.21653 6.50144 36806 ft 450 kts 111°
2026-04-23 16:54 5.19361 6.55966 36816 ft 448 kts 111°
2026-04-23 16:55 5.17080 6.61775 36830 ft 450 kts 111°
2026-04-23 16:55 5.14794 6.67593 36842 ft 450 kts 111°
2026-04-23 16:56 5.12505 6.73428 36847 ft 450 kts 111°
2026-04-23 16:56 5.10213 6.79259 36853 ft 448 kts 111°
2026-04-23 16:57 5.07939 6.85051 36846 ft 450 kts 111°
2026-04-23 16:57 5.05633 6.90921 36842 ft 451 kts 111°
2026-04-23 16:58 5.03189 6.96690 36824 ft 450 kts 122°
2026-04-23 16:58 4.99524 7.01760 36835 ft 451 kts 125°
2026-04-23 16:59 4.95865 7.06840 36830 ft 440 kts 125°
2026-04-23 16:59 4.94108 7.09281 36826 ft 419 kts 125°
2026-04-23 16:59 4.92453 7.11586 36818 ft 404 kts 125°
2026-04-23 17:00 4.89169 7.16155 36843 ft 410 kts 125°
2026-04-23 17:00 4.85784 7.20861 36841 ft 422 kts 125°
2026-04-23 17:01 4.84065 7.23250 36356 ft 420 kts 125°
2026-04-23 17:01 4.82350 7.25623 35064 ft 434 kts 124°
2026-04-23 17:01 4.80560 7.28103 33613 ft 449 kts 123°
2026-04-23 17:01 4.78727 7.30653 32118 ft 465 kts 122°
2026-04-23 17:02 4.76831 7.33298 31477 ft 460 kts 122°
2026-04-23 17:02 4.74991 7.35861 30901 ft 456 kts 122°
2026-04-23 17:02 4.73133 7.38446 30316 ft 453 kts 122°
2026-04-23 17:02 4.71298 7.40994 29782 ft 448 kts 121°
2026-04-23 17:03 4.69493 7.43498 29288 ft 444 kts 122°
2026-04-23 17:03 4.67707 7.45979 28767 ft 440 kts 122°
2026-04-23 17:03 4.65929 7.48452 28291 ft 436 kts 122°
2026-04-23 17:03 4.64173 7.50896 27844 ft 432 kts 121°
2026-04-23 17:04 4.62412 7.53342 27368 ft 429 kts 122°
2026-04-23 17:04 4.60676 7.55750 26897 ft 426 kts 122°
2026-04-23 17:04 4.58952 7.58146 26434 ft 423 kts 122°
2026-04-23 17:04 4.57234 7.60531 26081 ft 417 kts 122°
2026-04-23 17:05 4.55550 7.62874 25655 ft 413 kts 122°
2026-04-23 17:05 4.53893 7.65171 25268 ft 409 kts 122°
2026-04-23 17:05 4.52228 7.67480 24843 ft 407 kts 122°
2026-04-23 17:05 4.50582 7.69765 24400 ft 405 kts 123°
2026-04-23 17:06 4.48937 7.72051 23947 ft 403 kts 123°
2026-04-23 17:06 4.47311 7.74308 23528 ft 400 kts 123°
2026-04-23 17:06 4.45673 7.76581 23070 ft 399 kts 123°
2026-04-23 17:06 4.44057 7.78824 22632 ft 397 kts 124°
2026-04-23 17:07 4.42451 7.81050 22184 ft 396 kts 124°
2026-04-23 17:07 4.40830 7.83297 21749 ft 394 kts 124°
2026-04-23 17:07 4.39233 7.85506 21312 ft 393 kts 124°
2026-04-23 17:07 4.37620 7.87745 20891 ft 391 kts 124°
2026-04-23 17:08 4.35991 7.89999 20435 ft 390 kts 123°
2026-04-23 17:08 4.34380 7.92237 20012 ft 389 kts 123°
2026-04-23 17:08 4.32791 7.94439 19563 ft 388 kts 123°
2026-04-23 17:08 4.31201 7.96646 19122 ft 388 kts 123°
2026-04-23 17:09 4.29615 7.98846 18681 ft 387 kts 123°
2026-04-23 17:09 4.28012 8.01063 18235 ft 386 kts 123°
2026-04-23 17:09 4.26422 8.03268 17798 ft 386 kts 123°
2026-04-23 17:09 4.24850 8.05447 17354 ft 386 kts 123°
2026-04-23 17:10 4.23289 8.07616 16908 ft 385 kts 123°
2026-04-23 17:10 4.21701 8.09815 16463 ft 384 kts 123°
2026-04-23 17:10 4.20139 8.11978 16035 ft 383 kts 123°
2026-04-23 17:10 4.18591 8.14126 15607 ft 381 kts 123°
2026-04-23 17:11 4.17040 8.16272 15175 ft 379 kts 123°
2026-04-23 17:11 4.15504 8.18405 14747 ft 378 kts 123°
2026-04-23 17:11 4.13960 8.20539 14319 ft 376 kts 123°
2026-04-23 17:11 4.12435 8.22656 13894 ft 375 kts 123°
2026-04-23 17:12 4.10922 8.24747 13477 ft 373 kts 123°
2026-04-23 17:12 4.09413 8.26840 12981 ft 359 kts 123°
2026-04-23 17:12 4.07987 8.28806 12571 ft 342 kts 123°
2026-04-23 17:12 4.06630 8.30683 12207 ft 327 kts 123°
2026-04-23 17:13 4.05324 8.32495 11849 ft 315 kts 122°
2026-04-23 17:13 4.04068 8.34240 11511 ft 305 kts 122°
2026-04-23 17:13 4.02832 8.35959 11176 ft 297 kts 123°
2026-04-23 17:13 4.01689 8.37649 10854 ft 287 kts 110°
2026-04-23 17:14 4.01230 8.39537 10578 ft 281 kts 94°
2026-04-23 17:14 4.01016 8.41478 10324 ft 279 kts 94°
2026-04-23 17:14 4.00820 8.43399 10241 ft 271 kts 93°
2026-04-23 17:14 4.00642 8.45246 10152 ft 265 kts 93°
2026-04-23 17:15 4.00464 8.47073 10058 ft 260 kts 93°
2026-04-23 17:15 4.00291 8.48856 9783 ft 263 kts 93°
2026-04-23 17:15 4.00116 8.50693 9464 ft 266 kts 93°
2026-04-23 17:15 3.99938 8.52542 9145 ft 270 kts 93°
2026-04-23 17:16 3.99757 8.54433 8822 ft 274 kts 93°
2026-04-23 17:16 3.99575 8.56331 8490 ft 277 kts 93°
2026-04-23 17:16 3.99390 8.58249 8156 ft 280 kts 93°
2026-04-23 17:16 3.99201 8.60191 7815 ft 282 kts 93°
2026-04-23 17:17 3.99014 8.62155 7476 ft 284 kts 94°
2026-04-23 17:17 3.98822 8.64129 7129 ft 286 kts 94°
2026-04-23 17:17 3.98632 8.66107 6781 ft 288 kts 94°
2026-04-23 17:17 3.98439 8.68113 6421 ft 288 kts 94°
2026-04-23 17:18 3.98059 8.72037 5724 ft 279 kts 94°
2026-04-23 17:18 3.97874 8.73955 5391 ft 276 kts 94°
2026-04-23 17:18 3.97694 8.75818 5092 ft 258 kts 94°
2026-04-23 17:19 3.97529 8.77524 4808 ft 237 kts 94°
2026-04-23 17:19 3.97210 8.79189 4511 ft 252 kts 113°
2026-04-23 17:19 3.96191 8.80546 4232 ft 237 kts 132°
2026-04-23 17:19 3.95095 8.81728 3904 ft 222 kts 131°
2026-04-23 17:20 3.94070 8.82852 3517 ft 214 kts 131°
2026-04-23 17:20 3.91727 8.84427 2662 ft 204 kts 180°
2026-04-23 17:21 3.89334 8.83135 2602 ft 203 kts 219°
2026-04-23 17:21 3.88283 8.82246 2509 ft 192 kts 220°
2026-04-23 17:21 3.86260 8.80470 2520 ft 192 kts 221°
2026-04-23 17:22 3.85275 8.79548 2311 ft 188 kts 221°
2026-04-23 17:22 3.83378 8.77836 1826 ft 182 kts 220°
2026-04-23 17:23 3.81545 8.76203 1358 ft 160 kts 220°
2026-04-23 17:23 3.80694 8.75448 1149 ft 162 kts 221°
2026-04-23 17:23 3.79117 8.74046 732 ft 133 kts 222°
2026-04-23 17:24 3.78426 8.73432 584 ft 133 kts 222°
2026-04-23 17:24 3.77729 8.72812 421 ft 136 kts 223°
2026-04-23 17:24 3.76310 8.71561 122 ft 133 kts 221°
2026-04-23 17:25 3.75164 8.70541 121 ft 42 kts 224°
2026-04-23 17:25 3.75000 8.70397 120 ft 20 kts 196°
2026-04-23 17:26 3.74948 8.70589 123 ft 23 kts 41°
2026-04-23 17:26 3.75266 8.70873 114 ft 32 kts 41°
2026-04-23 17:27 3.75572 8.71148 96 ft 30 kts 41°
2026-04-23 17:27 3.75702 8.71265 90 ft 25 kts 42°
2026-04-23 17:27 3.75805 8.71368 84 ft 17 kts 57°
2026-04-23 17:27 3.75831 8.71475 78 ft 9 kts 118°
2026-04-23 17:28 3.75786 8.71527 77 ft 5 kts 131°
2026-04-23 17:28 3.75783 8.71530 77 ft 0 kts 131°